Flag for Pakistan Weather past 2 weeks in Jhelum, Pakistan

Now
59 °F

Passing clouds.


Feels Like: 59 °F
Forecast: 64 / 83 °F
Wind: 5 mph from Northeast

Location: Islamabad Airport


UV Index: 5 (Moderate)

Visibility: 4 mi


Pressure: 30.01 "Hg

Humidity: 88%

Dew point: 55 °F

Location of JhelumLocation

Historic Weather in Jhelum

°F

Jhelum temperature yesterday

Maximum temperature yesterday: 70 °F (at 12:00 PM)
Minimum temperature yesterday: 59 °F (at 10:00 PM)
Average temperature yesterday: 65 °F

Past Weeks' High & Low Weather Summary

 TemperatureHumidityPressure
High86 °F (Apr 10, 1:00 PM)94% (Apr 8, 6:00 AM)30.07 "Hg (Apr 8, 6:00 AM)
Low55 °F (Apr 9, 6:00 AM)16% (Apr 10, 2:00 PM)29.80 "Hg (Apr 12, 5:00 PM)
Average71 °F57%29.94 "Hg
* Reported Apr 3 11:00 PM — Apr 18 11:00 PM, Jhelum, Weather by CustomWeather, © 2014

Note: Actual official high and low records may vary slightly from our data, if they occured in-between our weather recording intervals... More about our weather records

Advertising

Historic Weather Conditions — Data for Previous 24 hours

 ConditionsComfort  
Time TempWeatherWind HumidityBarometerVisibility
11:00 PM
Apr 18
59 °FPassing clouds.5 mph88%30.01 "Hg4 mi
10:00 PM59 °FPassing clouds.No wind88%30.01 "Hg4 mi
9:00 PM61 °FPassing clouds.5 mph88%29.98 "Hg4 mi
8:00 PM61 °FPassing clouds.No wind88%29.98 "Hg4 mi
7:00 PM63 °FPassing clouds.No wind83%29.95 "Hg4 mi
6:00 PM63 °FScattered clouds.12 mph83%29.98 "Hg4 mi
5:00 PM63 °FBroken clouds.12 mph83%29.98 "Hg4 mi
4:00 PM63 °FBroken clouds.12 mph83%29.98 "Hg4 mi
3:00 PM68 °FThunderstorms. Broken clouds.12 mph64%29.98 "Hg4 mi
2:00 PM70 °FBroken clouds.12 mph60%30.01 "HgN/A
1:00 PM70 °FBroken clouds.12 mph60%30.01 "HgN/A
12:00 PM70 °FBroken clouds.16 mph60%30.01 "HgN/A
11:00 AM68 °FBroken clouds.12 mph64%30.01 "HgN/A
10:00 AM66 °FBroken clouds.12 mph73%29.98 "HgN/A
9:00 AM64 °FBroken clouds.9 mph78%29.98 "HgN/A
8:00 AM63 °FRain. Broken clouds.16 mph88%29.98 "Hg4 mi
7:00 AM63 °FBroken clouds.18 mph77%29.98 "Hg4 mi
6:00 AM63 °FFog.14 mph77%29.95 "Hg2 mi
5:00 AM63 °FRain. Partly cloudy.12 mph77%29.92 "Hg3 mi
4:00 AM64 °FThundershowers. Partly cloudy.12 mph68%29.92 "Hg3 mi
3:00 AM68 °FPartly cloudy.14 mph56%29.92 "Hg3 mi
2:00 AM68 °FThundershowers. Partly cloudy.21 mph56%29.92 "Hg3 mi
1:00 AM68 °FPartly cloudy.5 mph56%29.89 "Hg5 mi
12:00 AM68 °FPassing clouds.5 mph56%29.89 "Hg5 mi
Weather by CustomWeather, © 2014

See weather overview